Theta_e
292 292 292 292 291 291 290 290 290 290 290 290 290 290 289 289 289 288 288 287 287 286 286 286 285 285 285 285 285 284 283 283 283 282 281 281 280 280 279 278 278 278 278 277 277 277 276 276 276 276 276 275 275 275 275 275 276 276 276 276 276 276 277 277 277 278 278 278 278 278 277 277 276 276 275 275 275 276 276 276 276 276 276 277 277
292 292 292 291 291 291 290 290 289 289 289 289 289 289 289 289 288 288 288 287 286 286 286 285 285 285 285 285 284 283 283 283 282 281 280 280 280 279 278 278 278 277 277 277 276 276 275 275 275 275 274 274 274 274 274 274 274 274 274 274 275 275 275 276 276 276 276 276 276 276 276 275 275 275 275 275 275 275 275 275 275 275 276 276 276
292 291 291 291 291 290 290 289 289 289 289 288 288 288 288 288 288 288 287 286 286 285 285 285 285 285 285 285 284 283 283 282 281 281 280 280 279 278 278 277 277 277 276 276 275 275 274 274 274 274 273 273 273 273 273 273 273 273 273 273 273 274 274 274 275 275 275 275 275 274 274 274 274 274 274 274 274 274 274 274 274 275 275 275 275
291 291 291 290 290 290 289 289 288 288 288 288 287 287 287 287 287 287 286 286 285 285 285 285 285 285 285 284 283 282 282 281 280 280 280 279 279 278 278 277 277 276 275 275 275 274 274 273 273 273 272 272 272 272 272 272 272 272 272 273 273 273 273 273 273 274 274 274 274 274 274 274 274 274 274 274 274 274 274 274 274 275 275 275 275
291 291 290 290 289 289 289 288 288 287 287 287 287 286 286 286 286 286 286 285 285 284 284 284 284 285 284 284 283 282 282 281 280 280 280 279 278 278 277 277 276 275 275 274 274 274 273 273 272 272 272 272 272 272 272 272 272 272 272 272 272 272 273 273 273 273 273 273 274 274 274 274 274 274 274 274 274 274 274 274 275 275 275 275 276
291 290 290 289 289 288 288 287 287 287 286 286 286 285 285 285 285 285 285 284 284 283 283 284 284 284 284 283 282 282 281 281 280 280 280 279 278 278 277 277 275 274 274 273 273 273 272 272 272 272 272 272 272 272 272 272 272 273 273 273 273 273 273 273 273 273 273 273 274 274 274 274 274 274 274 274 274 274 274 275 275 275 275 276 276
290 290 289 289 288 288 288 287 286 286 286 285 285 284 284 284 284 284 284 284 283 283 283 283 283 283 283 282 281 281 281 280 280 280 279 278 278 277 277 276 274 273 273 273 272 272 272 272 272 273 273 273 273 273 273 273 273 273 273 273 273 273 273 273 273 273 274 274 274 274 274 274 275 275 275 275 275 275 275 275 275 276 276 276 276
290 289 289 288 288 288 287 287 286 286 285 284 284 283 283 283 283 283 283 283 283 283 283 283 282 281 281 281 281 280 280 279 279 279 279 278 277 277 276 275 273 272 272 272 272 273 273 273 273 273 273 273 273 273 273 273 273 273 274 274 274 274 274 274 273 274 274 274 274 274 274 274 275 275 275 275 275 275 275 276 276 276 276 276 276
289 289 288 288 288 288 287 286 286 285 284 283 283 282 282 282 282 282 282 282 282 282 282 282 282 281 280 280 280 279 279 279 279 279 279 278 277 276 275 273 272 272 272 272 273 273 273 273 274 274 274 274 274 274 275 275 275 275 275 276 276 276 275 275 274 274 274 274 274 275 275 275 275 275 275 275 275 275 276 276 276 276 276 276 277
289 288 288 288 288 287 286 286 285 284 283 283 282 282 281 281 281 281 281 281 281 281 281 281 281 281 280 279 279 279 279 279 279 279 278 277 276 275 274 273 272 272 273 273 273 274 274 274 274 274 274 275 275 275 275 276 276 276 276 276 276 276 276 276 276 276 275 275 275 275 275 275 276 276 276 276 276 276 276 276 276 277 277 277 277
288 288 288 288 287 286 286 285 284 283 283 282 282 281 281 281 280 280 280 280 280 280 280 279 279 279 279 279 279 279 279 279 279 278 277 277 276 275 274 273 273 273 273 274 274 274 275 275 274 274 274 274 274 274 275 275 275 275 276 276 276 277 277 277 277 277 277 277 276 276 276 277 277 277 276 276 276 276 277 277 277 277 277 278 278
288 288 288 287 287 286 285 284 283 283 282 281 281 280 280 280 280 279 279 279 279 278 278 278 278 278 278 278 278 279 279 279 278 277 276 276 275 275 274 274 274 274 274 275 275 275 275 274 274 274 274 274 274 274 274 274 275 275 276 276 276 277 277 277 277 277 277 277 277 277 277 277 277 277 277 277 276 276 276 276 277 277 277 278 278
288 287 287 286 286 285 284 283 282 282 281 281 280 280 279 279 279 279 278 278 278 277 277 277 277 277 278 278 278 278 278 278 278 276 276 275 276 276 275 275 275 275 275 275 275 275 274 274 274 273 273 274 274 274 274 274 275 275 275 276 276 276 276 277 277 277 277 277 277 277 277 277 277 277 276 276 276 276 276 276 276 276 276 277 277
287 287 286 286 285 285 284 283 282 281 281 280 279 279 278 278 278 278 277 277 276 276 276 276 276 277 277 278 278 278 278 278 277 276 275 275 276 277 276 275 275 275 275 275 275 274 273 273 273 273 274 274 274 274 274 275 275 275 276 276 276 276 276 276 276 276 277 277 277 277 276 276 276 276 276 276 276 276 276 276 276 276 276 276 276
287 286 286 285 284 284 283 282 281 281 280 279 279 278 278 278 277 277 276 276 275 275 275 275 276 277 277 278 278 278 278 277 276 275 275 275 276 276 276 275 275 275 275 274 274 273 273 273 273 274 274 274 274 275 275 275 275 276 276 276 276 276 276 276 276 276 276 276 276 276 276 276 276 276 276 276 276 276 276 276 276 276 276 276 277
286 285 285 284 284 283 283 282 281 280 279 278 278 277 277 277 276 276 275 275 275 274 275 275 276 277 277 278 278 278 277 276 275 274 274 275 276 276 276 275 275 274 274 273 273 273 273 274 274 274 274 274 274 275 275 275 275 276 276 276 275 276 276 276 276 276 276 277 277 277 277 277 277 277 277 277 277 277 277 277 277 277 277 277 277
286 285 285 284 284 283 282 281 280 279 278 277 277 277 276 276 275 275 274 274 273 273 274 275 276 277 278 278 277 277 276 275 274 274 274 275 276 275 275 275 274 274 273 273 273 273 273 273 274 274 274 274 274 274 275 275 276 276 276 276 276 276 276 276 276 276 276 276 276 276 276 277 277 277 277 278 278 278 278 278 278 278 278 278 278
286 285 285 284 283 283 282 281 280 279 278 277 277 276 276 275 275 274 274 273 273 273 275 276 276 277 278 277 277 276 276 274 274 273 274 275 275 275 274 274 274 273 273 273 273 273 273 274 274 274 274 274 274 274 275 275 276 276 276 276 276 276 276 275 275 274 274 275 275 275 275 275 276 276 276 276 276 276 277 278 278 279 279 279 279
286 285 285 284 283 282 281 281 280 279 277 277 276 276 275 275 274 274 274 273 273 274 275 276 276 276 277 277 276 276 275 274 273 273 273 275 275 275 274 274 273 273 273 273 273 274 274 274 274 274 273 273 274 274 275 276 276 276 276 276 275 275 274 274 274 274 274 274 274 273 273 273 273 273 273 273 274 274 275 276 277 278 279 279 279
286 285 284 284 282 282 281 280 279 278 277 277 276 275 275 274 273 273 273 273 273 273 274 275 275 275 275 275 275 275 274 273 272 272 273 274 275 275 274 273 274 274 273 274 274 274 274 273 273 273 273 273 273 274 275 276 276 275 275 274 274 273 273 274 274 274 273 272 271 271 270 270 271 271 272 273 274 275 275 276 277 277 278 279 279
286 285 284 283 282 281 280 280 279 278 277 276 275 274 274 273 273 273 272 272 272 272 272 273 274 273 273 273 273 274 273 273 272 272 273 274 275 275 274 274 274 273 274 274 274 274 273 273 272 272 272 272 274 275 275 275 275 274 273 272 272 273 274 274 273 272 270 269 269 269 270 270 271 271 272 273 274 275 276 277 278 278 279 279 279
285 284 283 282 281 281 280 279 278 277 276 276 275 274 273 273 272 272 272 272 272 271 271 271 271 271 271 272 272 273 272 272 272 272 273 274 274 274 274 274 274 274 274 274 274 273 273 272 271 271 272 273 274 274 274 274 273 272 272 272 273 273 273 272 270 269 268 268 269 269 270 270 271 271 271 272 273 274 275 276 277 278 279 279 279
285 284 283 281 280 280 279 278 277 276 276 275 274 273 272 272 272 272 272 271 271 270 270 270 270 269 269 269 271 271 271 271 271 271 272 273 274 274 274 274 274 275 274 274 273 273 272 271 271 271 272 273 273 273 273 272 271 271 271 272 272 272 271 269 268 268 268 268 269 269 270 270 271 271 271 272 272 273 273 274 275 275 276 277 278
284 283 281 280 279 279 278 277 276 276 275 274 273 272 272 271 271 271 271 271 270 270 269 269 269 268 268 269 269 270 270 271 271 271 272 273 274 274 274 274 274 274 274 273 273 272 271 271 271 272 272 272 271 271 271 270 270 270 271 271 271 269 268 267 267 268 268 268 269 270 270 270 270 271 271 271 272 272 272 273 273 273 273 274 275
283 281 280 279 278 277 277 276 275 274 274 274 273 272 271 271 270 270 270 270 270 269 269 268 269 269 269 269 269 270 270 270 271 271 272 272 273 274 274 274 274 274 273 273 272 271 271 272 272 271 270 270 270 269 268 268 268 269 269 269 268 267 266 267 267 268 268 269 269 269 270 270 270 271 271 271 271 271 272 272 272 272 273 274 274
281 280 279 278 277 276 275 275 274 273 273 273 273 272 271 270 270 270 270 270 270 269 269 269 269 269 270 270 270 270 270 270 270 270 271 272 272 273 273 273 273 273 272 272 271 271 271 271 270 269 268 268 268 267 267 267 267 267 267 267 266 266 266 267 267 268 268 269 269 269 269 270 270 270 271 271 271 271 271 272 272 272 273 274 274
280 279 278 277 276 275 275 274 273 272 272 272 272 271 271 271 270 269 269 269 269 269 269 269 269 269 270 270 270 269 270 269 269 270 271 271 271 272 272 272 272 272 271 270 270 271 270 269 268 268 267 267 267 267 266 266 266 265 265 265 265 266 266 267 267 268 268 268 268 269 269 269 270 270 270 271 271 271 271 272 272 272 272 273 273
279 278 277 276 274 274 274 273 272 271 271 271 271 270 270 270 270 270 270 270 270 270 269 269 270 270 270 270 270 269 269 269 269 270 271 271 271 271 271 271 271 271 270 270 270 270 269 269 268 268 267 267 267 266 265 265 265 265 265 265 265 266 266 266 267 267 267 268 268 268 269 269 269 270 270 271 271 271 271 271 271 271 271 272 272
279 277 276 274 273 273 273 272 272 271 271 270 270 270 270 270 270 270 271 272 273 272 271 270 270 270 270 270 270 269 269 269 270 270 271 271 272 272 272 271 271 270 270 270 270 269 268 268 268 267 266 265 265 265 264 264 264 264 264 265 265 265 266 266 266 267 267 268 268 268 268 269 270 270 271 271 271 271 271 271 271 271 271 271 271
277 276 275 273 272 272 271 271 271 271 270 270 269 269 269 270 270 270 271 272 272 273 273 272 271 271 270 270 270 270 270 270 270 271 272 272 272 272 272 271 271 270 270 269 269 268 268 267 266 265 264 263 263 263 263 263 263 263 264 264 265 265 265 266 266 267 267 267 268 268 268 269 270 270 271 271 271 270 270 270 270 270 270 270 271
276 275 274 273 272 271 271 271 270 270 270 269 269 269 269 270 270 271 271 271 272 272 272 272 271 271 270 270 270 270 271 271 272 272 273 272 272 272 271 271 271 270 269 268 267 267 267 266 265 264 263 263 263 263 262 262 263 263 263 264 264 265 265 266 266 266 267 267 268 268 269 269 270 270 270 270 270 270 270 270 270 270 270 270 270
276 275 273 273 272 271 270 270 270 270 270 269 269 269 270 271 271 271 272 272 273 273 272 272 271 271 270 270 270 271 272 272 273 273 272 272 272 271 271 271 270 269 268 267 267 267 265 264 264 263 263 262 262 262 262 262 262 263 263 263 264 264 265 265 266 266 267 267 268 268 269 270 270 270 270 270 270 270 270 269 269 269 269 270 270
277 276 274 272 271 271 270 270 269 269 269 269 269 270 271 271 271 272 273 274 274 273 273 272 272 271 271 270 271 271 272 273 272 272 272 271 271 270 270 270 268 267 267 267 267 266 265 263 263 263 262 262 262 261 261 262 262 262 263 263 263 264 264 265 265 266 266 267 268 268 269 270 270 270 270 270 270 270 269 269 269 269 269 269 270
278 276 274 272 271 270 270 269 269 269 269 269 270 270 271 271 272 273 274 274 274 274 273 273 272 272 272 271 271 272 272 272 272 271 271 270 270 269 269 268 267 266 266 267 266 265 264 263 262 262 262 261 261 261 261 261 261 262 262 263 263 263 264 265 265 266 266 267 268 268 269 270 270 270 270 270 270 269 269 269 269 269 269 269 269
277 276 274 272 271 271 270 269 269 269 269 269 270 271 271 271 272 273 273 273 273 273 273 273 273 272 272 272 272 272 272 272 271 271 270 269 268 268 267 267 266 266 266 266 266 264 263 262 262 262 261 261 261 260 260 260 261 261 261 262 263 263 264 264 265 266 267 267 268 268 269 270 270 270 270 270 269 269 269 269 269 269 269 269 269
276 275 273 272 271 271 270 269 269 269 269 270 270 271 271 271 272 273 273 273 272 272 272 273 273 272 272 272 272 272 272 271 271 270 269 268 267 267 267 266 266 266 266 265 264 263 262 262 262 262 261 260 260 260 260 260 260 261 261 262 262 263 263 264 265 266 267 267 267 268 269 270 270 270 269 269 269 269 269 269 268 269 269 269 269
276 274 273 272 271 271 270 269 269 269 270 270 270 271 271 271 272 272 271 271 270 270 270 271 272 271 271 271 272 272 271 270 269 268 267 266 266 266 266 266 266 265 265 264 263 263 263 263 262 261 261 260 260 260 260 260 260 260 261 261 262 262 263 265 266 266 267 267 267 268 269 270 270 269 269 269 269 269 269 269 269 269 269 269 269
275 275 273 272 271 270 269 269 269 270 270 270 270 270 270 270 271 270 269 269 268 268 268 269 269 269 269 269 270 270 270 268 267 266 265 265 265 265 265 265 265 265 264 264 263 264 264 263 262 262 261 261 261 261 260 260 260 260 260 261 262 262 263 265 265 266 266 267 267 268 269 270 270 269 269 269 269 269 269 269 268 268 269 269 269
275 274 273 272 271 270 269 269 269 269 269 269 269 269 269 269 269 268 267 267 267 267 267 267 267 267 267 268 268 268 267 266 265 264 264 264 264 264 264 264 264 264 263 263 263 263 263 263 262 262 262 262 262 261 260 260 260 260 260 261 262 262 263 264 265 266 266 267 268 269 270 270 269 269 268 268 268 268 269 269 268 268 268 268 269
274 273 272 271 271 270 269 269 269 269 269 269 269 268 268 268 267 267 266 266 265 265 265 265 265 265 266 267 267 267 266 265 264 264 264 264 264 264 264 264 264 263 263 263 263 262 262 262 263 263 263 263 262 262 261 260 260 260 260 261 262 262 263 264 265 266 266 267 268 269 270 270 269 269 268 268 268 268 268 268 268 268 268 268 268
273 271 271 271 270 270 269 269 269 268 268 268 267 267 267 267 266 266 265 265 264 264 264 264 264 264 265 266 266 266 265 265 264 264 264 264 264 264 264 263 263 263 262 262 262 262 262 262 263 263 263 263 262 262 262 261 261 261 260 261 262 263 263 264 265 266 266 267 268 269 270 270 269 268 268 268 268 268 268 268 268 268 268 268 268
272 271 271 270 270 269 268 268 268 267 267 267 266 266 266 266 265 265 264 264 263 263 263 262 263 264 265 265 265 265 265 264 264 263 263 263 263 263 263 263 263 262 262 262 262 262 262 263 263 263 263 263 262 262 262 262 262 261 261 261 262 262 263 264 265 266 266 267 268 270 270 269 269 268 268 268 268 268 268 268 268 268 268 268 268
271 270 270 269 269 268 267 267 267 266 266 266 266 265 265 265 264 264 263 262 262 262 262 261 262 263 265 267 266 265 264 264 263 263 263 263 263 263 262 262 262 262 262 262 262 262 262 263 263 263 263 263 263 263 263 263 262 261 261 261 262 263 263 264 265 266 266 267 269 270 270 269 268 268 267 268 268 268 268 268 268 268 268 268 268
270 269 269 268 268 267 267 266 266 266 266 265 264 264 264 263 263 263 262 262 261 261 261 261 262 264 265 266 265 264 263 263 263 263 263 263 262 262 262 262 262 262 262 262 262 262 262 263 263 263 263 263 264 264 264 264 263 262 262 261 262 263 263 264 265 266 267 268 269 270 269 268 268 267 267 267 268 268 268 268 268 268 268 268 268
269 268 268 267 266 266 266 266 265 264 264 263 263 262 262 262 262 262 261 261 261 261 261 261 262 263 264 264 264 263 262 262 262 262 262 262 262 262 262 262 262 262 262 262 262 262 262 262 262 262 263 263 264 264 264 264 264 263 263 263 262 263 264 265 265 266 267 269 270 270 269 268 267 267 267 267 267 268 268 268 268 268 268 268 268
268 267 267 266 266 265 265 264 263 263 262 262 262 262 262 261 261 261 261 260 260 260 260 261 261 262 263 263 262 262 262 262 262 262 262 262 262 262 262 262 262 262 262 262 262 262 262 262 262 262 263 263 264 264 264 264 264 264 264 264 264 264 265 265 266 267 268 270 270 269 269 268 267 267 267 267 267 267 268 268 268 268 268 268 268
267 266 266 265 265 264 263 262 262 262 262 261 261 261 261 260 260 260 260 260 260 260 260 260 261 261 262 262 262 262 262 262 262 262 262 262 262 262 262 262 262 262 262 262 262 262 262 262 262 262 262 263 264 264 264 264 264 265 265 265 265 265 265 265 266 268 269 270 270 269 268 268 267 267 267 267 267 267 267 267 267 268 268 268 268
266 265 265 264 263 262 262 262 261 261 261 260 260 260 260 259 259 259 259 259 259 259 259 260 260 261 261 261 261 261 262 262 262 262 262 262 262 262 262 262 262 262 262 262 262 262 262 262 262 262 262 263 263 264 264 264 265 265 265 265 265 265 266 266 267 269 270 270 270 269 268 267 267 267 267 267 267 267 267 267 267 267 267 268 268
265 264 263 263 262 262 261 261 261 261 260 260 259 259 259 259 259 259 259 259 259 259 260 260 261 261 261 261 261 261 262 262 262 262 263 262 262 262 262 262 262 262 262 262 262 262 262 262 262 262 262 263 263 264 264 264 264 265 265 265 265 265 266 267 268 269 270 270 269 269 268 267 267 267 266 267 267 267 267 267 267 267 267 267 267
263 263 262 262 261 261 261 261 260 260 259 259 259 258 258 258 258 258 259 259 259 259 260 261 261 261 261 261 262 262 262 262 262 263 262 262 262 262 262 262 262 262 262 262 262 262 262 262 262 262 263 263 263 263 264 264 264 265 265 265 265 266 266 267 269 270 270 269 269 268 268 267 267 267 266 266 267 267 267 267 267 267 267 267 267
262 261 261 261 261 260 260 260 259 259 259 259 259 258 258 258 258 258 259 259 260 260 260 261 261 261 261 261 262 262 262 262 262 262 262 262 262 261 262 262 262 262 262 262 262 262 262 262 262 263 263 263 263 263 264 264 264 264 265 265 265 266 266 268 269 270 269 269 269 268 268 267 267 266 266 266 266 267 267 267 267 267 267 267 267
Wind_Speed
42 43 43 42 41 40 40 40 40 40 41 42 43 43 44 45 44 42 41 40 39 38 37 35 32 29 27 24 22 19 17 16 15 14 13 13 12 13 12 12 13 14 14 15 15 14 15 15 15 16 15 15 16 17 17 18 18 20 20 21 22 20 22 23 16 23 45 50 46 47 43 42 49 46 41 44 41 34 35 38 39 40 42 42 42
43 44 42 40 40 40 39 38 39 39 40 41 41 42 42 44 44 44 43 42 41 40 37 35 32 29 27 24 22 20 18 17 16 15 14 13 13 13 13 13 14 15 15 15 15 14 14 15 15 16 15 15 16 16 18 18 18 20 20 19 22 22 21 25 23 18 33 49 48 49 50 44 46 48 41 39 42 40 39 41 42 41 41 42 45
42 41 39 39 41 40 38 37 38 38 38 39 40 41 42 42 44 44 44 42 41 39 37 35 33 30 27 25 23 22 19 18 16 15 14 14 14 14 14 14 15 15 16 15 15 14 14 15 15 15 14 15 17 17 18 19 18 19 21 21 22 24 22 23 26 23 26 42 49 49 51 47 44 45 42 41 45 46 44 43 42 43 44 44 46
39 38 39 40 40 39 39 38 38 38 39 38 38 39 40 41 42 43 43 42 41 39 37 35 33 31 29 27 25 22 20 18 17 15 14 14 14 14 14 14 15 15 16 15 14 14 14 15 15 14 14 15 17 18 17 18 20 20 21 22 21 23 24 22 26 28 27 35 44 46 47 47 46 45 42 43 45 44 44 45 44 44 47 46 44
38 39 39 38 37 38 39 38 39 39 39 38 37 37 38 40 41 42 42 42 41 40 37 35 34 32 30 28 26 23 20 18 17 15 14 14 15 14 14 15 15 15 15 15 14 14 14 14 15 14 14 16 17 19 19 18 20 21 21 24 24 24 27 28 29 31 30 32 38 42 42 44 45 45 42 42 44 43 43 46 46 43 45 46 45
39 39 38 37 37 37 37 38 39 39 39 38 38 38 38 39 41 41 42 42 41 40 38 36 34 32 30 27 24 22 20 18 17 15 15 15 15 14 14 15 15 15 14 14 13 13 14 14 15 14 14 18 18 18 20 20 21 23 23 24 26 25 27 29 29 29 31 33 35 37 39 39 41 43 40 39 41 42 41 44 46 43 40 42 45
38 38 38 37 37 37 38 39 40 40 40 39 38 38 38 39 40 41 41 41 41 39 38 36 33 31 28 25 23 21 19 18 17 15 15 15 14 14 15 14 15 14 13 13 13 13 14 14 14 15 14 17 19 19 20 21 21 22 23 24 24 25 26 27 26 27 29 32 33 34 36 37 40 43 41 39 40 40 38 37 40 43 40 38 42
37 37 37 37 38 39 40 39 39 40 40 38 38 38 39 39 40 40 40 40 40 39 38 36 32 29 26 24 22 20 19 18 17 15 15 15 14 14 15 14 14 13 12 13 13 12 13 14 13 15 16 17 19 20 20 21 22 21 22 23 23 24 26 26 25 26 27 29 31 32 33 34 37 39 39 37 35 36 37 34 35 43 45 41 43
36 36 36 38 39 39 38 38 38 39 39 38 39 39 40 40 41 41 40 40 39 38 37 35 33 30 27 24 23 21 20 18 16 16 15 15 15 15 14 13 13 13 12 12 12 12 12 13 13 13 15 17 18 20 20 21 23 23 23 23 24 24 25 26 26 25 25 25 27 28 27 28 30 31 32 31 30 34 39 37 37 43 45 46 47
36 36 37 38 37 36 36 37 38 39 39 40 40 41 41 41 42 41 41 40 39 38 36 34 32 30 28 26 24 22 21 18 16 16 15 15 15 14 13 13 12 12 12 11 11 12 11 12 12 13 15 18 19 20 22 23 25 27 27 26 27 27 27 27 26 25 24 22 22 22 20 21 27 29 29 31 33 34 36 34 35 38 37 37 40
35 36 36 36 34 35 36 38 38 40 40 41 41 42 42 42 42 42 41 40 39 38 36 34 32 30 28 26 25 23 21 18 17 17 16 15 14 13 12 12 12 12 12 11 11 11 10 10 11 13 15 18 20 22 23 24 26 28 29 29 29 29 30 30 28 27 26 24 24 24 21 23 31 35 34 35 36 35 34 34 33 33 29 23 23
34 35 34 34 35 37 38 39 39 40 40 41 41 42 42 42 42 41 41 40 38 37 36 34 32 30 28 26 24 23 20 18 18 18 17 16 15 14 13 13 13 12 12 12 11 10 10 10 11 13 17 19 21 23 24 25 26 27 29 30 30 30 31 32 32 32 30 27 29 30 27 27 33 38 38 36 37 38 38 36 34 32 31 25 21
34 33 33 35 37 38 39 39 39 40 40 41 41 41 42 42 42 42 41 39 38 37 35 34 32 30 28 26 24 22 20 19 19 19 17 16 16 15 15 15 13 12 12 12 11 10 10 12 13 15 18 19 21 24 26 28 29 29 28 29 30 30 31 33 35 36 37 35 34 36 38 36 35 40 43 39 39 41 38 37 37 35 33 31 32
33 33 33 36 37 38 39 39 39 39 40 41 41 42 43 43 42 41 40 39 37 36 35 33 31 30 28 26 24 22 21 20 20 19 17 15 15 16 17 16 14 13 13 12 11 10 11 13 15 17 18 20 22 24 26 28 28 28 28 29 30 31 30 32 35 37 39 40 40 42 48 48 44 48 53 48 45 46 42 41 41 38 39 43 49
32 32 34 35 37 38 39 39 39 39 40 41 42 42 42 42 41 40 40 39 38 37 36 34 31 30 28 26 24 23 21 21 20 19 18 16 15 16 17 16 15 14 14 13 11 12 13 14 15 17 19 21 23 23 25 26 27 28 30 31 32 33 33 34 35 36 38 40 41 44 48 50 51 53 55 52 48 49 49 49 50 48 47 48 50
30 32 34 35 38 39 40 40 39 39 41 41 42 42 42 42 41 41 39 38 37 36 35 34 32 30 28 27 25 24 22 21 21 20 18 16 16 17 16 16 16 14 13 12 11 11 13 14 15 18 20 21 22 23 24 26 27 29 31 33 35 37 37 35 33 34 37 37 39 42 44 47 50 50 52 51 47 48 48 48 49 46 38 31 30
31 33 35 37 39 40 41 41 40 40 41 42 42 42 42 42 42 42 40 38 36 36 35 33 32 31 30 28 26 24 23 22 21 20 17 15 16 17 16 15 14 12 11 11 11 11 13 14 15 17 18 19 21 22 23 24 27 29 32 35 36 36 36 36 32 31 34 36 38 42 43 45 47 47 49 49 47 48 44 38 38 34 23 16 14
31 34 36 38 40 41 41 42 41 41 42 43 43 42 42 42 42 42 42 40 38 38 37 35 33 31 30 29 26 24 23 22 22 20 17 15 15 16 15 13 12 12 11 11 12 12 13 14 15 16 18 19 21 22 22 24 27 29 31 32 32 32 34 34 32 33 36 36 37 38 38 40 42 44 47 47 47 48 43 40 41 34 21 14 12
33 35 36 37 39 40 41 41 41 42 43 43 42 42 41 41 41 40 40 40 39 38 37 36 34 32 30 28 26 24 23 23 22 19 16 14 15 14 13 12 11 12 12 11 12 12 13 13 14 16 18 19 20 21 22 24 27 28 28 29 29 29 31 32 33 36 37 34 34 35 35 37 39 41 45 46 46 46 44 45 48 40 27 22 19
30 30 30 32 35 38 40 41 42 42 42 41 40 40 40 39 40 39 38 38 37 37 37 36 35 33 30 28 26 25 24 23 22 19 16 15 15 14 13 13 12 12 11 12 13 12 11 13 14 15 16 18 19 21 22 24 25 26 27 26 26 29 33 35 35 35 35 35 36 38 38 38 38 37 39 40 39 39 40 41 45 44 37 31 26
26 26 28 30 34 36 38 40 41 40 40 38 37 37 38 38 39 39 37 36 36 35 36 36 35 33 31 29 27 26 24 23 23 20 16 15 15 14 14 13 11 11 12 12 12 10 10 12 14 15 16 18 20 21 23 23 24 25 25 24 25 30 33 35 35 36 37 38 39 39 39 38 37 34 34 35 35 35 35 36 39 42 41 37 31
23 27 29 31 33 35 36 37 38 37 37 38 38 36 35 36 38 38 37 36 35 36 36 36 34 32 30 29 27 26 24 23 22 19 16 15 15 14 13 12 10 10 11 11 11 10 9 10 14 16 16 18 20 21 22 22 22 21 22 23 27 30 31 32 34 36 37 38 37 37 37 36 36 36 34 33 33 33 34 35 35 36 38 40 39
22 25 28 30 32 34 35 35 37 37 38 40 40 37 35 35 36 37 37 36 34 33 34 34 32 30 28 26 26 25 25 23 20 18 16 14 14 13 12 10 9 9 9 10 11 11 10 12 15 17 16 18 20 19 20 20 19 19 21 24 26 27 28 30 32 33 35 35 34 33 33 34 35 34 32 31 32 33 35 36 36 38 39 39 41
22 25 27 28 30 32 33 35 36 38 39 40 39 37 36 36 35 35 35 34 32 30 30 31 31 29 26 24 24 25 24 22 20 17 15 14 13 12 11 9 8 8 8 9 11 11 12 14 15 16 16 17 17 17 18 18 19 20 23 24 25 26 27 29 31 31 32 31 28 28 30 32 31 30 30 32 35 36 38 38 39 41 42 42 43
25 27 28 29 30 31 31 33 35 36 39 41 40 38 37 36 35 35 34 34 31 28 28 30 31 29 24 22 24 27 25 23 21 17 15 14 13 11 10 8 7 7 8 9 11 12 12 12 13 14 15 15 15 16 18 18 19 21 23 23 24 26 27 28 29 28 27 27 27 28 30 31 30 31 33 36 37 38 39 41 41 41 40 40 42
27 28 28 29 30 31 31 31 32 34 36 39 39 40 41 40 38 36 35 33 31 29 31 33 31 28 23 21 26 28 25 23 22 19 16 15 12 10 9 7 6 6 7 7 9 10 10 12 13 13 12 13 14 15 17 17 18 21 22 23 24 26 26 27 27 27 27 27 28 29 29 30 32 34 36 37 37 37 38 38 38 37 34 33 35
27 28 29 29 30 32 33 32 32 33 34 35 35 37 40 41 41 42 41 37 33 32 35 34 31 27 23 22 25 26 24 22 22 20 19 17 13 11 9 7 7 8 7 7 8 10 12 13 12 10 10 12 13 15 17 18 20 22 23 24 25 25 25 26 26 26 27 29 29 30 31 33 34 35 36 36 36 36 36 35 34 34 33 31 31
28 28 30 30 31 33 34 34 34 33 34 34 34 35 37 38 42 49 50 47 42 39 37 34 33 31 28 25 23 22 21 22 23 22 21 19 15 12 10 8 9 9 7 6 8 10 11 10 8 8 12 15 17 19 20 21 22 23 24 25 26 25 26 25 25 26 27 28 30 32 33 33 33 34 35 34 32 33 35 35 33 32 32 29 25
26 27 29 30 30 31 32 33 34 33 32 32 32 34 36 35 38 44 45 44 45 45 40 37 35 33 31 30 29 25 23 24 25 22 19 17 15 13 12 10 10 9 6 5 8 8 7 6 7 11 14 17 19 21 22 22 23 23 24 25 26 27 26 25 25 27 28 29 30 31 32 32 32 32 32 31 30 31 33 33 31 29 30 27 23
24 25 26 27 28 30 29 30 31 31 31 31 29 29 30 31 33 37 36 36 38 39 37 37 37 35 33 31 29 29 28 27 24 20 17 15 13 12 11 10 9 8 6 5 6 4 3 6 9 11 13 15 18 19 20 22 22 23 24 25 26 26 26 26 26 28 29 29 30 31 32 31 30 30 30 30 31 32 31 31 30 28 27 24 21
21 22 25 26 28 30 29 28 29 29 28 29 28 26 24 23 25 28 29 28 28 27 28 30 31 33 32 28 25 24 24 23 21 18 16 15 12 11 11 10 9 8 6 5 3 1 5 7 9 11 12 14 16 18 19 20 21 23 25 25 25 25 26 27 28 29 30 30 30 31 31 31 30 30 31 31 32 32 31 30 29 27 26 24 20
23 23 25 26 27 28 27 26 28 27 26 27 27 26 24 21 18 18 20 21 21 21 23 24 25 25 27 27 25 22 20 18 18 18 17 15 13 12 12 11 10 8 5 3 2 3 5 6 8 10 12 14 16 18 19 20 21 23 24 24 25 26 27 29 30 31 31 31 31 31 31 31 31 32 33 32 31 30 29 28 27 26 26 25 23
29 26 26 25 25 27 27 26 27 27 27 27 28 27 25 22 20 20 22 22 21 21 22 23 23 23 22 22 22 20 18 18 18 18 16 15 14 13 12 11 10 7 5 3 4 4 4 5 7 10 12 14 16 18 19 20 21 22 22 23 25 28 30 31 32 31 30 30 30 31 32 32 32 33 33 32 31 29 27 27 27 26 24 22 21
32 28 27 28 28 28 28 28 28 28 28 28 28 27 25 24 24 26 27 24 22 24 24 23 24 24 22 21 19 18 18 19 18 17 16 15 14 14 14 13 10 6 4 3 4 4 5 6 8 10 12 14 17 18 20 21 22 22 23 24 26 28 31 32 31 31 30 31 31 32 33 33 33 32 32 31 30 28 27 26 25 24 22 20 18
30 27 28 30 30 28 28 29 30 29 28 29 28 26 25 26 27 28 27 24 23 24 25 25 25 24 23 21 20 19 19 18 18 17 15 14 14 14 14 13 9 6 3 3 3 4 5 6 9 11 13 15 17 17 19 21 22 22 24 26 27 28 30 31 30 30 31 31 32 33 33 33 34 33 32 31 30 27 26 26 25 24 24 22 19
28 26 28 31 30 29 29 30 30 29 29 29 28 26 26 26 26 25 25 25 25 25 25 26 27 25 23 22 21 20 19 18 17 16 14 13 13 12 12 11 9 6 3 2 2 3 5 7 9 11 13 14 16 17 19 21 22 23 24 25 27 28 30 30 30 31 31 32 34 35 34 34 35 35 33 31 30 29 27 27 27 26 25 24 22
30 27 28 30 31 29 29 29 29 29 29 29 27 26 26 26 25 25 24 24 25 24 25 28 29 27 24 22 21 20 19 18 17 16 14 13 12 11 10 9 7 4 3 2 3 4 6 8 9 11 13 14 16 18 19 21 22 24 24 25 27 28 29 29 30 32 33 34 35 35 34 34 36 36 33 29 29 29 28 28 28 26 26 27 26
32 30 30 32 31 30 29 29 29 29 29 29 28 27 27 26 25 25 24 25 26 26 25 27 28 27 25 23 23 23 22 20 19 16 13 12 11 10 9 8 5 3 2 2 4 5 7 9 10 12 13 15 17 19 20 21 23 24 25 26 27 28 29 29 31 32 33 34 34 33 33 34 36 37 34 30 28 29 29 29 28 26 25 24 22
27 26 28 30 30 28 29 30 30 31 30 29 28 28 28 27 25 25 25 25 25 25 24 24 24 25 25 26 26 26 24 21 18 16 14 12 11 10 8 7 5 3 2 2 4 6 7 9 11 12 14 16 18 19 20 21 23 24 25 26 27 28 29 30 31 32 34 35 34 33 33 35 37 39 36 31 29 29 30 30 29 27 24 21 20
23 23 27 30 28 27 28 30 30 30 30 30 29 29 28 27 27 27 27 26 25 24 24 24 24 25 27 28 27 25 23 21 18 16 15 14 12 10 8 6 4 3 1 2 4 6 7 9 11 13 14 16 17 19 20 21 22 23 24 25 26 27 29 30 31 33 34 35 35 33 33 36 39 39 36 32 31 32 32 30 30 28 25 23 24
23 23 26 29 28 28 28 28 28 29 29 30 29 29 28 27 28 29 28 27 25 24 24 23 24 27 29 28 26 24 23 21 19 18 16 14 12 10 9 7 5 3 1 2 4 6 8 9 11 13 14 16 17 19 20 21 22 23 24 25 25 27 29 31 32 34 35 36 35 33 33 37 40 38 35 34 35 35 32 31 30 29 27 27 27
25 25 26 28 30 29 28 27 28 29 29 29 29 30 30 30 30 30 29 27 27 26 24 23 25 27 27 23 21 20 20 20 19 18 16 15 13 11 9 7 4 3 1 2 4 6 8 10 11 13 14 16 17 19 20 22 23 24 24 25 26 27 29 31 33 35 36 37 35 33 35 39 40 39 37 37 36 34 33 32 31 30 28 27 27
27 27 27 29 30 30 30 30 30 31 30 30 30 32 32 32 30 29 29 28 27 27 26 25 26 27 24 20 19 20 19 19 18 17 16 14 12 10 9 7 4 2 1 2 4 6 8 10 11 13 14 16 17 19 20 21 23 24 24 25 27 28 30 32 34 36 39 39 36 34 37 40 41 39 38 37 35 34 33 33 31 29 29 29 27
27 27 27 28 28 29 30 31 31 30 30 31 31 31 31 31 30 29 28 27 27 27 27 28 28 26 23 21 21 21 19 18 17 16 15 14 12 10 7 6 4 2 2 3 4 6 8 9 11 12 13 15 16 17 19 20 22 23 24 25 27 29 31 33 35 39 42 40 36 35 38 41 41 39 37 37 36 34 33 33 31 30 30 29 26
27 27 27 26 26 27 27 28 29 30 30 30 29 29 28 28 28 28 29 28 27 27 28 29 28 26 23 22 22 21 19 18 17 16 15 13 11 9 7 5 3 2 2 3 4 6 7 9 10 12 13 15 16 16 17 19 21 22 24 24 26 29 31 34 37 41 42 38 35 36 40 41 40 38 38 37 36 34 33 33 33 31 29 28 25
27 27 27 26 26 26 26 26 28 29 30 30 31 30 29 28 27 28 28 28 29 29 29 29 28 26 24 23 22 20 20 19 17 15 14 12 10 8 6 4 2 1 1 3 4 5 7 8 9 12 14 15 16 16 17 19 21 22 24 25 26 28 31 34 38 41 40 37 35 38 40 39 38 39 39 38 37 36 34 34 34 31 30 29 27
27 27 27 27 26 26 25 26 28 28 28 29 30 30 29 28 27 28 28 28 29 29 29 28 27 25 24 23 22 21 20 18 16 15 13 11 9 7 5 3 2 1 1 2 4 5 7 8 9 12 14 15 16 17 18 19 21 23 24 26 27 29 32 35 38 40 38 36 36 38 39 38 38 40 40 39 38 37 35 34 34 32 31 30 30
27 26 26 26 27 27 27 27 28 28 27 27 27 27 28 28 27 27 27 28 28 28 28 27 26 25 24 23 22 20 19 17 15 13 11 9 8 6 4 3 1 0 2 2 4 6 7 8 10 12 14 15 16 16 18 20 21 23 25 27 28 29 32 35 38 38 37 36 37 38 38 38 38 40 40 40 38 37 36 34 34 34 32 30 29
25 25 25 25 25 26 27 28 28 28 29 30 29 28 27 28 27 27 28 28 27 27 27 27 25 24 23 22 20 19 17 15 14 12 10 8 6 4 3 2 0 2 3 4 5 7 8 9 11 12 14 15 15 16 18 20 22 24 26 27 29 31 32 34 36 37 37 37 38 38 37 38 39 40 40 40 39 38 37 36 35 35 33 30 28
24 25 26 25 24 25 26 29 30 31 31 33 32 30 28 29 29 28 28 28 27 26 26 26 25 24 23 21 19 18 16 14 12 11 8 7 5 3 2 1 1 3 4 5 7 8 9 10 12 13 14 15 15 16 18 20 21 23 25 28 30 32 32 34 36 36 36 38 39 37 36 37 39 39 40 40 39 38 38 37 36 35 33 30 28
26 26 26 26 26 27 29 32 33 32 32 32 33 32 31 30 29 27 27 28 27 26 25 25 24 23 21 19 18 16 15 13 11 9 7 6 4 3 1 1 2 3 5 7 8 9 10 12 13 14 15 16 16 16 17 19 21 23 25 28 31 32 32 33 35 35 36 38 38 36 35 37 38 39 39 40 40 39 38 37 36 35 33 31 30
Wind_Direction
215 216 216 217 218 218 217 216 214 212 211 209 206 203 201 200 198 197 195 195 195 194 195 197 199 201 202 205 208 210 212 214 218 222 223 225 228 230 232 234 242 250 255 260 263 267 271 273 275 277 279 280 281 280 278 276 275 272 269 270 269 264 264 265 265 280 285 286 290 293 296 299 299 301 304 305 306 308 305 302 300 298 295 292 290
216 216 215 215 217 218 217 216 214 212 211 209 207 204 202 199 197 195 194 195 196 196 196 197 199 201 202 205 208 208 211 213 216 218 219 221 224 227 232 236 243 251 255 261 266 269 272 273 276 280 282 282 281 279 278 276 274 274 271 267 267 264 258 263 267 274 284 288 291 293 295 297 298 300 303 304 304 305 303 300 299 296 291 289 289
216 215 214 214 216 216 216 214 213 212 211 209 208 205 202 199 196 195 194 194 195 197 198 198 198 200 201 204 206 207 209 211 213 216 216 218 222 226 233 239 245 252 256 261 266 269 273 276 280 284 285 284 281 278 279 278 275 272 270 267 265 265 259 258 265 270 279 286 289 292 295 297 295 296 300 299 299 300 299 297 296 294 291 289 289
215 215 214 215 214 213 213 212 210 210 210 210 209 206 202 198 196 195 194 194 195 196 197 198 198 198 200 202 204 205 207 208 210 213 214 218 224 229 234 240 247 252 257 261 266 270 273 276 281 284 282 279 280 281 280 278 276 271 270 270 265 264 263 256 258 264 269 279 283 286 290 294 294 295 298 298 296 296 297 296 295 292 291 289 287
213 213 214 214 212 211 210 208 208 208 208 208 208 207 204 200 197 196 195 194 194 195 195 196 198 199 201 202 203 204 206 207 209 210 214 218 224 229 235 242 249 252 256 260 264 269 272 275 278 281 280 278 279 281 279 276 275 273 272 272 268 264 263 258 254 255 258 265 275 281 285 289 291 292 296 298 295 295 295 294 293 290 289 289 287
211 211 211 211 210 209 208 206 206 205 205 205 206 206 204 201 198 197 196 195 193 194 194 196 198 200 201 202 203 204 205 207 210 210 213 218 222 229 235 241 247 250 255 259 264 269 272 275 278 278 277 278 278 277 277 277 275 274 271 270 269 264 259 255 250 248 253 260 267 276 279 283 288 288 290 294 292 293 295 294 293 290 286 287 287
208 208 208 208 207 207 206 205 204 203 203 204 202 202 202 201 199 197 197 195 194 194 194 196 198 199 201 201 202 204 205 206 209 208 211 218 222 228 234 238 244 248 253 260 266 272 274 275 277 278 279 277 276 275 275 276 272 268 266 264 262 259 256 254 248 245 253 259 262 269 272 276 283 282 283 290 287 285 290 291 292 293 289 284 284
205 204 205 205 206 207 206 204 202 201 201 200 199 199 199 199 199 197 197 196 195 195 195 195 196 197 199 200 201 203 204 205 206 207 211 218 222 225 230 235 242 248 255 264 269 271 273 274 274 276 279 275 272 272 270 270 269 264 262 260 257 256 255 251 248 249 254 257 259 265 267 272 279 277 279 285 282 280 287 285 284 290 291 286 283
202 201 202 204 206 206 203 201 200 199 197 196 196 196 196 196 197 196 196 196 196 196 196 196 195 194 195 198 199 200 204 205 204 205 210 215 218 223 228 231 237 248 256 262 263 261 261 266 268 271 274 271 269 271 269 269 271 270 270 270 267 266 263 258 254 252 253 254 256 262 264 267 272 273 275 277 272 276 284 282 278 283 287 286 284
199 199 201 205 205 202 200 198 196 195 194 194 194 194 194 194 194 195 195 195 196 196 196 195 195 194 193 194 196 199 203 203 200 203 207 210 214 217 222 228 236 246 252 250 251 254 256 260 267 269 271 271 271 273 273 274 274 273 275 276 275 275 274 271 267 262 259 258 257 259 260 263 267 269 272 276 275 278 282 282 281 283 285 286 285
199 200 202 203 201 198 196 195 194 193 193 193 192 191 192 192 192 193 194 194 195 194 194 193 192 193 193 193 196 199 200 198 195 199 203 205 213 218 220 229 236 236 240 244 248 258 263 265 271 274 274 276 277 276 276 275 274 273 275 277 278 278 278 279 278 276 272 270 270 267 262 265 273 275 276 279 281 281 282 282 283 285 287 287 286
199 200 201 199 196 196 194 193 192 192 192 191 190 190 190 190 190 191 191 192 192 191 191 192 191 191 192 193 195 198 196 193 192 196 199 199 209 222 224 225 228 229 234 243 251 260 268 269 273 277 277 279 280 278 277 276 276 277 278 279 280 279 279 279 280 281 280 278 278 275 270 271 276 278 279 280 281 281 280 278 277 280 284 282 281
198 199 198 196 195 194 193 191 190 191 190 189 189 188 187 188 188 190 190 190 190 190 190 190 190 190 191 191 194 195 191 189 191 193 194 195 202 215 222 221 223 231 237 242 250 259 268 273 276 277 278 279 279 278 278 277 278 279 280 281 281 280 279 280 279 281 282 281 280 279 278 278 278 277 279 281 280 279 277 275 273 273 273 274 274
197 197 195 195 194 193 191 190 189 189 189 187 187 186 187 188 188 189 188 188 187 188 188 188 187 188 190 191 192 193 189 188 191 192 191 197 203 208 218 224 226 232 233 236 250 261 267 272 275 277 279 279 279 280 281 282 284 284 284 282 282 282 283 283 281 281 280 277 275 275 276 277 276 277 280 280 276 274 273 271 270 267 266 268 271
195 195 194 194 193 191 190 190 189 188 187 186 186 186 186 187 186 187 187 187 187 188 187 187 187 187 189 191 191 190 188 187 190 192 192 197 203 207 216 222 223 226 231 239 254 262 265 269 273 277 279 280 281 282 285 288 290 290 289 287 287 287 286 284 281 280 279 275 272 272 274 275 275 276 278 277 273 270 269 269 269 268 267 268 269
193 194 194 194 193 192 190 189 188 187 185 184 185 185 186 186 186 186 186 186 187 187 186 186 186 186 187 189 190 188 185 186 190 193 194 197 203 208 213 217 220 229 238 247 254 257 262 268 271 276 279 281 283 285 288 292 294 294 292 291 291 290 288 287 285 284 285 284 281 281 281 281 281 280 280 280 277 275 273 270 267 264 262 264 265
194 194 195 195 194 193 190 188 187 186 185 185 185 186 186 185 186 185 184 183 184 184 185 185 186 187 186 187 189 186 183 187 192 192 193 198 203 207 213 217 224 234 243 248 253 258 264 268 271 277 281 283 286 289 292 295 295 294 293 293 294 294 294 295 295 292 291 290 288 287 287 286 286 286 285 285 285 284 283 278 271 265 257 256 261
197 196 197 197 194 193 191 189 188 186 186 187 186 186 185 185 185 185 184 183 183 184 184 184 184 187 187 186 187 185 183 188 193 191 192 197 202 208 214 217 225 238 245 251 259 265 268 270 274 279 281 284 288 291 295 297 297 298 298 300 300 298 299 301 301 299 297 295 293 291 290 290 290 289 289 288 287 286 284 280 279 277 269 263 267
201 199 200 197 193 192 191 190 189 188 188 189 187 185 185 184 184 184 184 183 182 182 183 182 181 184 186 185 185 185 185 188 190 189 190 196 203 208 212 217 229 240 247 256 264 268 271 275 280 281 282 286 290 293 298 302 304 305 306 305 302 299 301 303 302 302 303 304 303 301 299 297 295 293 292 290 287 284 279 275 276 273 267 264 265
205 202 200 195 192 192 191 191 191 191 190 189 187 185 184 183 182 183 183 182 180 178 179 179 179 180 181 182 183 185 186 186 185 184 187 195 201 206 212 221 232 242 254 262 265 269 276 280 282 282 283 288 292 298 304 307 308 309 308 305 301 299 303 305 305 307 310 310 308 306 304 303 301 298 296 294 290 285 279 275 271 265 260 261 260
203 200 197 194 193 193 192 193 193 191 189 186 184 184 184 183 183 182 180 179 177 174 175 175 175 176 178 180 183 185 185 183 181 180 185 194 198 203 212 220 231 248 258 261 264 272 279 281 282 283 286 292 299 305 309 309 309 309 306 302 299 301 306 309 310 312 312 309 308 307 307 307 306 304 301 297 294 291 287 283 275 265 258 255 255
201 197 194 193 193 193 193 193 192 189 187 184 182 182 183 184 184 181 178 177 174 172 172 173 172 173 176 179 182 181 179 177 176 177 184 193 197 201 210 217 228 244 254 260 269 276 278 279 282 285 289 298 305 308 309 309 310 307 304 303 305 307 311 312 312 312 311 310 310 308 307 307 306 304 302 297 295 295 294 292 288 281 272 264 259
201 197 194 193 193 192 192 192 190 187 185 183 181 180 180 182 182 181 178 174 170 169 171 171 169 169 173 176 176 175 173 173 175 178 183 191 197 201 207 216 225 238 253 266 270 272 277 279 281 287 296 304 307 308 309 311 311 307 306 309 311 313 314 312 311 311 309 309 307 304 304 306 305 303 302 298 297 298 296 295 294 293 292 286 277
198 196 195 193 193 192 191 190 189 186 184 182 179 177 177 178 179 181 179 173 168 167 169 170 168 167 167 169 170 172 172 173 176 180 183 188 195 201 206 214 223 235 253 262 266 273 279 280 284 294 303 306 307 308 310 312 311 310 311 314 316 317 317 314 311 309 306 304 303 301 302 304 303 301 301 302 302 300 297 295 293 292 292 290 287
195 194 193 192 192 191 189 189 189 187 185 182 179 176 175 175 176 179 179 175 170 167 169 171 171 168 164 164 169 173 173 174 175 178 183 189 194 198 203 210 222 237 249 257 268 276 278 282 293 302 305 307 309 313 316 316 314 313 315 318 319 319 317 312 308 306 303 302 302 301 302 303 302 301 302 303 303 301 298 296 296 295 292 289 286
193 192 191 191 190 187 186 187 188 188 187 185 182 179 176 175 175 176 177 177 174 171 171 172 171 169 165 164 168 171 173 175 177 176 180 187 191 193 198 207 221 235 246 256 266 270 271 283 295 300 304 310 313 314 316 316 317 318 319 320 320 318 315 311 308 306 304 303 304 303 302 302 301 300 302 302 300 299 299 299 299 299 296 293 290
192 189 189 189 187 186 186 185 186 187 187 187 186 183 181 178 175 174 176 176 174 171 171 171 170 168 165 164 168 169 169 173 175 173 175 180 181 183 192 205 216 225 241 254 256 258 267 280 292 304 316 323 325 326 326 326 326 326 325 323 321 317 314 311 307 306 305 304 304 303 302 302 301 299 301 301 299 298 300 301 301 300 299 297 293
193 190 188 186 186 187 187 185 184 186 188 188 187 185 184 182 180 179 179 177 174 170 169 171 172 169 166 164 165 165 169 176 176 173 174 176 176 180 187 197 209 219 234 243 240 251 269 284 306 330 339 340 340 339 337 334 330 327 324 323 321 318 315 312 309 307 307 305 304 304 303 302 300 300 301 300 297 298 301 301 298 297 298 296 292
195 191 188 186 187 188 188 188 187 186 186 189 190 188 187 187 185 183 183 182 179 176 174 175 175 173 169 168 166 166 172 178 175 170 170 173 175 179 182 189 202 210 215 224 235 251 279 312 341 349 347 343 339 337 336 332 327 325 324 324 322 319 316 314 312 311 311 309 306 305 305 303 301 300 302 300 297 298 301 301 298 297 296 293 288
194 193 190 188 188 187 187 188 188 186 185 186 187 187 188 189 187 183 182 184 184 182 180 179 178 174 171 170 171 171 170 168 168 168 169 170 172 172 173 180 188 186 185 212 236 261 333 357 357 352 343 337 334 331 328 325 322 322 323 323 320 318 316 316 315 314 312 311 309 307 306 304 302 303 304 303 301 301 302 301 300 298 296 292 288
193 194 193 193 190 187 186 186 186 186 185 182 180 178 179 183 185 183 180 178 179 180 180 177 174 172 169 166 166 165 160 156 161 167 167 164 162 160 163 167 164 162 179 206 215 46 28 6 352 345 338 334 331 325 321 320 319 320 321 319 318 318 317 317 317 316 313 311 310 310 308 305 304 306 307 305 303 303 303 303 301 298 294 289 287
197 198 197 196 190 186 185 184 182 182 181 179 179 177 171 166 168 172 170 166 162 163 163 161 160 163 163 158 154 156 157 158 160 160 157 156 154 153 155 155 151 159 177 177 122 65 32 3 345 341 338 332 326 322 320 320 319 318 316 314 315 318 319 318 318 316 313 312 312 312 310 307 307 309 308 306 305 303 303 304 303 300 296 290 285
202 200 195 190 186 185 184 182 181 182 180 179 180 180 174 166 157 155 156 153 149 147 148 149 149 150 153 154 153 156 160 160 156 153 152 151 148 147 145 139 141 160 176 134 88 53 24 359 339 335 332 325 322 323 322 319 316 315 312 311 314 317 318 318 317 315 313 313 313 312 311 309 310 312 310 308 307 304 303 304 303 300 297 292 287
206 202 194 187 184 185 184 182 182 182 181 181 181 180 176 168 158 152 152 150 147 146 146 147 148 149 151 156 158 159 159 156 153 152 150 146 146 151 151 145 143 156 159 112 72 38 12 349 336 334 331 325 324 323 318 315 315 314 313 314 316 317 317 317 317 316 315 315 315 313 311 311 313 314 313 310 309 306 304 304 303 300 297 293 288
206 201 194 189 185 184 184 183 182 181 181 181 180 177 173 167 161 157 155 150 146 146 147 150 152 152 152 156 160 162 159 154 151 150 146 144 153 163 166 165 164 161 139 96 58 27 1 342 336 336 331 326 324 319 315 315 316 315 316 318 317 315 315 316 317 317 317 316 315 312 311 313 316 317 314 312 310 308 306 304 303 300 296 292 288
203 198 192 188 186 184 183 183 181 180 179 178 176 172 169 165 162 158 153 148 144 143 144 147 150 150 150 154 159 160 157 154 149 145 144 153 166 175 174 172 169 160 137 94 40 12 357 345 340 337 330 323 321 320 317 317 318 318 319 318 315 313 315 316 318 319 319 317 314 312 311 314 319 320 318 314 310 308 306 304 302 298 294 292 291
200 196 191 188 186 183 180 179 178 176 174 172 170 167 164 163 159 153 147 143 140 138 138 140 142 142 144 151 157 157 154 148 142 140 147 163 175 179 178 173 165 156 139 80 23 2 357 351 343 337 332 326 326 328 326 323 322 321 321 319 315 314 315 316 318 319 317 315 313 311 310 314 319 320 319 315 311 309 307 305 303 299 294 293 293
201 198 192 187 182 177 174 172 171 169 167 166 166 163 160 158 154 148 143 141 140 139 139 141 143 143 143 147 153 154 150 146 147 149 156 167 170 167 167 164 155 146 126 42 12 358 354 351 344 340 339 337 337 336 331 327 326 324 322 319 318 317 318 319 320 320 318 315 312 309 310 315 319 321 320 314 310 310 309 307 306 303 298 294 291
202 198 190 182 176 172 169 167 166 165 164 164 163 161 157 153 148 144 142 142 143 144 144 145 149 151 150 149 152 155 155 157 161 163 163 165 166 161 155 152 145 136 111 33 9 355 348 347 346 345 346 344 341 338 334 330 328 327 324 321 320 321 321 322 321 319 318 315 312 310 313 317 320 322 320 314 310 311 310 308 307 304 299 293 287
194 187 179 174 171 169 167 165 164 164 163 162 160 158 155 151 147 145 146 146 148 151 152 152 155 160 162 161 163 167 168 166 166 168 166 165 163 157 151 150 147 131 89 24 2 347 341 344 348 349 349 347 342 339 337 335 332 329 326 323 322 322 322 322 320 318 316 315 312 311 314 319 322 322 319 315 313 313 311 309 308 304 299 295 293
181 173 170 169 166 163 163 163 164 162 160 158 156 154 151 149 147 148 149 151 152 154 155 157 160 165 169 170 172 176 177 172 169 169 169 165 161 158 155 155 151 134 86 356 344 337 338 346 351 350 348 346 343 341 341 341 338 333 329 327 325 323 322 322 320 317 316 314 312 312 317 322 324 323 319 317 316 315 312 310 309 306 303 299 296
170 165 165 164 162 160 159 160 159 157 154 153 152 152 151 150 150 151 152 152 154 153 153 156 161 165 168 170 172 175 176 173 170 169 167 163 161 161 158 157 154 149 153 327 334 336 339 346 350 349 346 346 345 344 345 345 342 336 331 328 327 324 322 321 320 318 317 316 314 315 320 324 325 323 320 318 317 316 314 313 311 309 307 304 298
165 163 162 161 160 160 158 156 154 153 153 154 153 154 153 152 152 152 151 150 152 152 151 153 157 160 161 165 170 172 172 169 167 167 166 163 163 162 161 165 170 179 230 301 326 333 337 342 344 345 346 348 349 349 349 347 343 338 332 329 328 326 323 321 319 319 319 317 316 319 325 326 325 324 322 320 319 317 316 315 314 312 311 309 304
159 157 156 156 156 155 154 153 153 152 152 152 151 151 151 150 148 147 147 147 149 150 151 153 155 156 156 161 168 170 168 166 166 167 165 164 164 165 167 173 183 206 250 290 315 325 329 333 336 341 348 353 354 354 354 351 346 341 336 332 328 326 324 321 319 320 319 317 317 323 328 327 326 324 322 321 321 320 318 318 318 315 313 311 307
151 150 149 148 148 148 149 150 149 147 146 145 144 144 145 145 144 144 145 145 147 149 152 154 156 156 156 161 165 167 166 166 167 166 164 164 165 166 169 177 191 220 269 306 318 318 319 323 329 338 348 355 357 357 355 354 352 349 345 338 331 326 324 322 321 321 321 319 321 327 328 327 326 325 323 323 322 322 321 320 320 318 315 312 309
145 145 144 143 144 144 145 146 146 144 142 142 141 140 139 140 141 143 144 145 147 150 152 155 158 160 161 162 164 166 166 166 165 163 162 162 162 163 168 176 186 220 311 325 323 320 320 325 333 342 351 355 356 355 356 356 355 354 352 347 340 333 328 325 324 324 323 324 327 330 329 327 326 325 325 324 324 323 323 322 322 321 318 315 312
140 140 141 141 140 140 140 141 141 138 137 136 136 135 135 136 139 141 143 146 149 151 154 158 161 163 163 162 163 165 165 165 162 161 160 160 160 161 164 169 173 181 341 334 331 331 334 339 345 351 354 355 353 352 353 355 356 355 355 353 347 340 334 330 328 326 327 329 331 332 330 328 328 328 328 327 326 326 326 325 325 324 321 317 315
136 136 137 139 138 137 137 138 136 133 131 132 131 131 132 134 136 139 142 146 149 152 156 159 162 162 162 162 163 164 163 161 159 158 156 155 157 159 162 163 155 43 357 344 338 340 345 352 356 358 356 354 351 350 350 353 355 356 356 354 351 345 340 334 330 329 331 334 334 333 332 331 330 330 330 330 329 328 328 327 327 326 323 319 317
132 132 132 133 134 135 136 136 134 132 131 131 130 129 130 133 136 140 143 146 149 153 156 158 160 160 161 161 161 161 160 158 156 155 153 154 157 161 160 152 72 356 344 341 342 344 350 356 359 359 357 353 349 347 349 353 355 356 356 356 353 348 341 336 333 334 337 338 336 334 334 334 333 333 333 332 331 331 330 329 329 329 327 324 321
122 124 125 126 128 130 132 131 129 129 131 131 130 129 130 133 136 140 145 148 150 153 156 158 159 160 161 160 159 158 157 155 153 151 152 157 163 165 166 163 351 338 334 337 341 344 349 355 358 358 355 353 349 347 349 352 355 357 357 356 353 347 340 336 336 338 341 340 338 336 336 336 336 336 336 334 334 333 332 332 332 333 331 329 325
114 117 120 121 123 124 124 124 125 126 127 129 130 130 132 135 138 142 146 149 151 154 156 158 158 158 158 157 156 155 153 152 152 153 157 165 171 175 189 284 327 328 329 335 340 343 348 353 354 354 353 351 349 348 349 352 356 358 357 355 351 346 341 338 338 341 342 341 339 337 338 338 338 338 338 337 337 336 334 334 335 335 335 332 329